Station ABYA2 - Auke Bay Lab Dock, AK Image indicating link to RSS feed of recent meteorological observations for station ABYA2


Conditions at ABYA2 as of
(11:52 am AKDT)
1952 GMT on 07/14/2024:
     

Click on the graph icon in the table below to see a time series plot of the last five days of that observation.

5-day plot - Wind Direction Wind Direction (WDIR):ENE ( 70 deg true )
5-day plot - Wind Speed Wind Speed (WSPD): 2.9 kts
5-day plot - Wind Gust Wind Gust (GST): 11.1 kts
5-day plot - Atmospheric Pressure Atmospheric Pressure (PRES):29.99 in
5-day plot - Air Temperature Air Temperature (ATMP): 57.7 °F
5-day plot - Dew Point Dew Point (DEWP): 56.3 °F
5-day plot - Wind Speed at 10 Meters Wind Speed at 10 meters (WSPD10M): 3.9 kts
5-day plot - Wind Speed at 20 Meters Wind Speed at 20 meters (WSPD20M): 3.9 kts
5-day plot -  Wind Speed, Wind Gust and Atmospheric Pressure Combined plot of Wind Speed, Gust, and Air Pressure
Previous observations
TIME
(AKDT)
5-day plot - Wind Direction
WDIR
 
5-day plot - Wind Speed
WSPD
kts
5-day plot - Wind Gust
GST
kts
5-day plot - Wave Height
WVHT
ft
5-day plot - Dominant Wave Period
DPD
sec
5-day plot - Average Wave Period
APD
sec
5-day plot - Mean Wave Direction
MWD
 
5-day plot - Atmospheric Pressure
PRES
in
5-day plot - Pressure Tendency
PTDY
in
5-day plot - Air Temperature
ATMP
°F
5-day plot - Water Temperature
WTMP
°F
5-day plot - Dew Point
DEWP
°F
5-day plot - Salinity
SAL
psu
5-day plot - Visibility
VIS
nmi
5-day plot - Tide (above MLLW)
TIDE
ft
2024-07-14 10:52 am E 1.0 8.9----29.98- 57.7- 55.9---
2024-07-14 09:52 am N 1.9 12.0----29.98- 57.6- 56.1---
2024-07-14 08:52 amENE 1.0 12.0----29.98- 57.6- 55.9---
2024-07-14 07:52 am N 1.9 8.0----29.98- 57.4- 55.9---
2024-07-14 06:52 amNNE 2.9 9.9----29.99- 57.4- 55.8---
2024-07-14 05:52 am NE 4.1 11.1----29.99- 57.2- 55.8---
2024-07-14 04:52 am N 2.9 11.1----29.99- 57.0- 55.6---
2024-07-14 03:52 amNNE 1.9 8.9----29.99- 57.0- 55.8---
2024-07-14 02:52 am N 4.1 9.9----30.00- 57.0- 55.6---
2024-07-14 01:52 amNNE 1.0 11.1----30.01- 56.8- 55.4---
2024-07-14 12:52 amENE 1.9 9.9----30.01- 57.0- 55.2---
2024-07-13 11:52 pm NE 2.9 8.0----30.02- 56.3- 55.0---
2024-07-13 10:52 pmNNW 2.9 8.9----30.03- 56.3- 54.7---
2024-07-13 09:52 pm N 2.9 8.9----30.03- 56.1- 54.3---
2024-07-13 08:52 pm N 2.9 8.0----30.05- 56.3- 54.0---
2024-07-13 07:52 pm NW 4.1 9.9----30.06- 55.9- 53.8---
2024-07-13 06:52 pmNNW 4.1 8.0----30.08- 54.9- 52.7---
2024-07-13 05:52 pmNNW 2.9 5.1----30.09- 55.9- 53.6---
2024-07-13 04:52 pm SE 1.9 6.0----30.11- 55.6- 53.1---
2024-07-13 03:52 pmWNW 2.9 9.9----30.11- 55.4- 52.9---
2024-07-13 02:52 pmENE 1.9 8.0----30.12- 54.7- 52.7---
2024-07-13 01:52 pm N 1.0 8.9----30.12- 54.3- 52.3---
2024-07-13 12:52 pm SW 1.0 5.1----30.13- 54.5- 52.0---
2024-07-13 11:52 amNNW 1.9 7.0----30.12- 54.3- 52.2---